Weather in Armacao de Pera

Portugal     37°06′11″N   8°21′46″W
temp.,
°C
wind,
m/s
gust,
m/s
humid.,
%
clouds,
%
prec.,
mm/h
press.,
hPa
HPBL,
m
19 september, sun
sun1901:00+19n812610 0.0 1017329
04:00+18n711660 0.0 1017286
07:00+18n610664 0.0 1018258
10:00+22n68495 0.0 1019349
13:00+26nnw33415 0.0 1018400
16:00+26wnw46472 0.0 1016583
19:00+26nnw56410 0.0 101681
22:00+22nnw713590 0.0 1018289
20 september, mon
mon2001:00+21n712570 0.0 1018265
04:00+20n812600 0.0 1018271
07:00+18n712690 0.0 1018261
10:00+21n67610 0.0 1019349
13:00+25w22500 0.0 1018419
16:00+25wsw57570 0.0 1015640
19:00+25nw810540 0.0 1014210
22:00+22nnw611600 0.0 1016240
21 september, tue
tue2101:00+21n712620 0.0 1015237
04:00+22nne813500 0.0 1014255
07:00+20nne812510 0.0 1014316
10:00+22ne56510 0.0 1015388
13:00+24se45540 0.0 1014679
16:00+22ssw43580 0.0 1013234
19:00+22wsw33600 0.0 101393
22:00+22n34480 0.0 101454
22 september, wed
wed2201:00+21n59450 0.0 1013178
04:00+20nne57460 0.0 1012166
07:00+20nne34480 0.0 101393
10:00+22nne33450 0.0 1013238
13:00+23s33450 0.0 1013662
16:00+23ssw44520 0.0 1012384
19:00+22wnw685941 0.0 1011257
22:00+20nnw58590 0.0 1013340
23 september, thu
thu2301:00+18nnw22660 0.0 1012118
04:00+18wnw44720 0.0 1012239
07:00+17nnw22761 0.0 1012180
10:00+19sse116711 0.0 1013266
13:00+20ssw436739 0.0 1013545
16:00+21ssw44684 0.0 1012577
19:00+20sw34700 0.0 1012544
22:00+20s23731 0.0 1013396